Location: Milton
(43.5183°N, 79.8775°W)
Time: 13:15:00
(UTC+00:00)

ESTCUBE 1 - Pass Details

Date: 03 April 2023
Orbit: 640 x 654 km, 97.9° (Epoch: 29 May)

Event Time Altitude Azimuth Distance (km) Brightness Sun altitude
Exits shadow 02:13:59 18° 36° (NE) 1,602 ? -25.4°
Drops below altitude 10° 02:15:48 10° 15° (NNE) 2,075 ? -25.6°
Sets 02:18:25 0° 1° (N) 2,990 ? -26.0°
